Regional Weather Roundup
Issued by NWS

Home | Current Version | Previous Version | Text Only | Print | Product List | Glossary On
Versions: 1 2 3 4 5 6 7 8 9 10 11 12 13 14 15 16 17 18 19 20 21 22 23 24 25 26 27 28 29 30 31 32 33 34 35 36 37 38 39 40 41 42 43 44 45 46 47 48 49 50
262
ASUS44 KOUN 111310
RWROK

WEATHER ROUNDUP FOR OKLAHOMA
NATIONAL WEATHER SERVICE NORMAN OK
700 AM CST THU FEB 11 2016

NOTE: "FAIR" INDICATES FEW OR NO CLOUDS BELOW 12,000 FEET WITH NO
      SIGNIFICANT WEATHER AND/OR OBSTRUCTIONS TO VISIBILITY.

OKZ001>007-009>012-014-015-017-111400-
NORTHWEST OKLAHOMA AND THE PANHANDLE

CITY           SKY/WX    TMP DP  RH WIND       PRES   REMARKS
GAGE           CLOUDY    26  23  88 CALM      30.18R
GUYMON         CLOUDY    31  22  69 N6        30.20R WCI  25
ENID/WOODRING  MOCLDY    37  32  81 N13       30.14R WCI  29
$$

OKZ016-021>023-033>039-044-045-111400-
SOUTHWEST OKLAHOMA

CITY           SKY/WX    TMP DP  RH WIND       PRES   REMARKS
LAWTON/REGL    CLEAR     47  31  53 N14       30.10R
LAWTON/FT SILL CLEAR     43  31  63 N15       30.09R
FREDERICK      CLEAR     41  31  67 N14       30.07R
CLINTON        CLOUDY    39  27  62 N10       30.16R WCI  32
HOBART         CLOUDY    39  29  67 NE10      30.13R WCI  32
$$

OKZ018>020-024>031-111400-
CENTRAL OKLAHOMA

CITY           SKY/WX    TMP DP  RH WIND       PRES   REMARKS
OKLAHOMA CITY  CLOUDY    41  31  67 N8        30.12R
OKC/WILEY POST CLOUDY    39  31  72 N10       30.13R WCI  32
OKC/TINKER AFB CLOUDY    38  31  74 N10       30.10R WCI  31
STILLWATER     CLOUDY    38  31  76 N8        30.13R WCI  32
GUTHRIE        MOCLDY    38  30  73 CALM      30.14R
$$

OKZ008-013-054>072-111400-
NORTHEAST OKLAHOMA

CITY           SKY/WX    TMP DP  RH WIND       PRES   REMARKS
TULSA          CLOUDY    36  27  69 N15       30.14R WCI  27
TULSA/JONES    PTCLDY    39  27  62 N9        30.13R WCI  33
PONCA CITY     CLOUDY    33  27  78 N10       30.16R WCI  25
BARTLESVILLE   PTCLDY    31  23  72 N14       30.19R WCI  21
MUSKOGEE       PTCLDY    39  31  72 N12       30.10R WCI  32
$$

OKZ032-040>043-046>053-073>077-111400-
SOUTH CENTRAL/SOUTHEAST OKLAHOMA

CITY           SKY/WX    TMP DP  RH WIND       PRES   REMARKS
ARDMORE/DWNTWN CLEAR     41  30  65 CALM      30.07R
MCALESTER      CLEAR     41  31  67 NW5       30.07R
$$





USA.gov is the U.S. government's official web portal to all federal, state and local government web resources and services.